Regional Weather Roundup
Issued by NWS

Home | Current Version | Previous Version | Graphics & Text | Print | Product List | Glossary Off
Versions: 1 2 3 4 5 6 7 8 9 10 11 12 13 14 15 16 17 18 19 20 21 22 23 24 25 26 27 28 29 30 31 32 33 34 35 36 37 38 39 40 41 42 43 44 45 46 47 48 49 50

952
ASUS43 KLSX 300810
RWRMO

WEATHER SUMMARY FOR MISSOURI
NATIONAL WEATHER SERVICE SPRINGFIELD MO
300 AM CDT TUE AUG 30 2016

NOTE: "FAIR" INDICATES FEW OR NO CLOUDS BELOW 12,000 FEET WITH NO
       SIGNIFICANT WEATHER AND/OR OBSTRUCTIONS TO VISIBILITY.
       CURRENT SKY AND/OR WEATHER CONDITIONS ARE NOT AVAILABLE FOR
       CHILLICOTHE AND FARMINGTON.

MOZ001>031-035>038-043-044-053-054-300900-
...NORTHERN AND WESTERN MISSOURI...

CITY           SKY/WX    TMP DP  RH WIND       PRES   REMARKS
KANSAS CTY INT CLOUDY    73  69  87 SW6       30.19R THUNDER
KANSAS C DTWN  CLOUDY    75  68  78 S5        30.16S
LEE`S SUMMIT   TSTM      70  68  93 E3        30.17S
ST JOSEPH      CLOUDY    70  69  97 N8        30.16F
CHILLICOTHE      N/A     71  69  93 NW5       30.15F
KIRKSVILLE     CLEAR     70  68  93 N3        30.16F FOG

$$
MOZ066>068-077>081-088>096-101>105-300900-
...SOUTHWEST MISSOURI...

CITY           SKY/WX    TMP DP  RH WIND       PRES   REMARKS
SPRINGFIELD    CLOUDY    73  69  87 N3        30.14S
JOPLIN         CLEAR     72  68  87 CALM      30.13S
BRANSON        PTCLDY    70  70 100 CALM      30.15S

$$
MOZ032>034-039>042-045>050-055>058-069>072-300900-
...CENTRAL MISSOURI...

CITY           SKY/WX    TMP DP  RH WIND       PRES   REMARKS
COLUMBIA       CLEAR     74  73  97 E5        30.14F
JEFFERSON CITY CLEAR     73  71  93 CALM      30.12F
ROLLA          CLEAR     73  70  90 SE5       30.15S
SEDALIA        CLEAR     74  71  91 SE3       30.15S FOG
WHITEMAN AFB   PTCLDY    74  74 100 S2        30.12S
OSAGE BEACH    CLEAR     72  70  93 CALM      30.14F

$$
MOZ051-052-059>065-300900-
...EAST CENTRAL MISSOURI...

CITY           SKY/WX    TMP DP  RH WIND       PRES   REMARKS
ST LOUIS INTL  CLEAR     80  72  76 CALM      30.14S
SPIRIT OF STL  CLEAR     74  73  97 CALM      30.12F FOG
ST CHARLES     CLEAR     76  75  97 CALM      30.12F

$$
MOZ072>076-082>087-097>100-106>115-300900-
...SOUTH CENTRAL AND SOUTHEAST MISSOURI...

CITY           SKY/WX    TMP DP  RH WIND       PRES   REMARKS
CAPE GIRARDEAU CLEAR     72  71  97 CALM      30.10F FOG
FARMINGTON     CLEAR     71  70  96 CALM      30.16S
POPLAR BLUFF   CLEAR     76  73  91 NE6       30.09F
WEST PLAINS    CLEAR     72  69  90 E3        30.16F

$$




USA.gov is the U.S. government's official web portal to all federal, state and local government web resources and services.